User: anonymous   Login
Location: Sungai Ketit
(2.6833°N, 113.2333°E)
Time: 12:58:42
(UTC+00:00)
Language:

Cosmos-2242 - Orbit

View from above orbital plane
View from above orbital plane
View from above satellite
View from above satellite

Ground track
Ground track

The orbit data is extracted from the following two-line orbital elements,

1 22626U 93024A   24199.21155782  .00003365  00000-0  32763-3 0  9993
2 22626  82.5213 119.2867 0018247 155.6651 204.5434 14.92127139691014
Epoch (UTC): 17 July 2024 05:04:38
Eccentricity: 0.0018247
inclination: 82.5213°
perigee height: 578 km
apogee height: 604 km
right ascension of ascending node: 119.2867°
argument of perigee: 155.6651°
revolutions per day: 14.92127139
mean anomaly at epoch: 204.5434°
orbit number at epoch: 69101

The dashed part of the orbit path shows where the satellite is in the earth's shadow,  

DLR